Temp
-12 -12 -12 -12 -12 -12 -12 -12 -12 -12 -12 -12 -12 -13 -13 -13 -13 -13 -13 -13 -13 -13 -13 -13 -13 -13 -13 -13 -13 -13 -13 -13 -13 -13 -13 -13 -13 -13 -14 -14 -14 -14 -14 -14 -14 -14 -14 -14 -14 -14 -14 -14 -14 -14 -14 -14 -14 -14 -14 -15 -15 -15 -15 -15 -15 -15 -15 -15 -15 -15 -15 -15 -15 -15
-12 -12 -12 -12 -12 -12 -12 -12 -12 -12 -12 -12 -12 -13 -13 -13 -13 -13 -13 -13 -13 -13 -14 -14 -13 -13 -13 -13 -13 -13 -13 -13 -13 -13 -13 -13 -13 -14 -14 -14 -14 -14 -14 -14 -14 -14 -14 -14 -14 -14 -14 -14 -14 -14 -14 -15 -15 -15 -15 -15 -15 -15 -15 -15 -15 -15 -15 -15 -15 -15 -15 -15 -15 -15
-13 -13 -13 -12 -12 -13 -12 -12 -12 -12 -12 -13 -13 -13 -13 -13 -13 -13 -13 -13 -13 -14 -14 -14 -13 -13 -13 -13 -14 -14 -14 -13 -13 -13 -13 -14 -14 -14 -14 -14 -14 -14 -14 -14 -14 -14 -14 -14 -14 -14 -14 -14 -14 -15 -15 -15 -15 -15 -15 -15 -15 -15 -15 -15 -15 -15 -15 -15 -15 -15 -15 -15 -15 -15
-13 -13 -13 -13 -13 -13 -13 -13 -13 -13 -13 -13 -13 -13 -13 -13 -13 -13 -13 -13 -14 -14 -14 -14 -13 -13 -14 -14 -14 -14 -14 -14 -14 -14 -14 -14 -14 -14 -14 -14 -14 -14 -14 -14 -14 -14 -14 -14 -14 -14 -14 -14 -15 -15 -15 -15 -15 -15 -15 -15 -15 -15 -15 -15 -15 -15 -15 -15 -15 -15 -15 -16 -16 -16
-13 -13 -13 -13 -13 -13 -13 -13 -13 -13 -13 -13 -13 -13 -13 -13 -13 -13 -13 -13 -13 -14 -14 -14 -13 -13 -14 -14 -14 -14 -14 -14 -14 -14 -14 -14 -14 -14 -14 -14 -14 -14 -14 -14 -14 -14 -14 -14 -14 -14 -14 -15 -15 -15 -15 -15 -15 -15 -15 -15 -15 -15 -15 -15 -15 -15 -15 -15 -16 -16 -16 -16 -16 -16
-13 -13 -13 -13 -13 -13 -13 -13 -13 -13 -13 -13 -13 -13 -13 -13 -13 -13 -13 -14 -14 -14 -14 -14 -14 -14 -14 -14 -14 -14 -14 -14 -14 -14 -14 -14 -14 -14 -14 -14 -14 -14 -14 -14 -14 -15 -15 -14 -14 -14 -15 -15 -15 -15 -15 -15 -15 -15 -15 -15 -15 -16 -16 -16 -16 -16 -16 -16 -16 -16 -16 -16 -16 -16
-13 -13 -13 -13 -13 -13 -13 -13 -13 -13 -13 -13 -13 -13 -13 -13 -14 -14 -14 -14 -14 -14 -14 -14 -14 -14 -14 -14 -14 -14 -14 -14 -14 -14 -14 -14 -14 -14 -14 -14 -14 -14 -14 -14 -14 -15 -15 -14 -15 -15 -15 -15 -15 -15 -15 -15 -15 -16 -16 -16 -16 -16 -16 -16 -16 -16 -16 -16 -16 -16 -16 -16 -16 -16
-13 -13 -13 -13 -13 -13 -13 -13 -13 -13 -13 -13 -13 -13 -13 -13 -14 -14 -14 -14 -14 -14 -14 -14 -14 -14 -14 -14 -14 -14 -14 -14 -14 -14 -14 -14 -14 -14 -14 -14 -14 -14 -14 -14 -15 -15 -15 -15 -15 -15 -15 -15 -15 -15 -15 -15 -16 -16 -16 -16 -16 -16 -16 -16 -16 -16 -16 -16 -16 -16 -16 -16 -16 -16
-13 -13 -13 -13 -13 -13 -13 -13 -13 -13 -13 -13 -13 -13 -13 -14 -14 -14 -14 -14 -14 -14 -14 -14 -14 -14 -14 -15 -15 -14 -14 -14 -14 -14 -14 -14 -14 -14 -14 -14 -14 -14 -14 -15 -15 -15 -15 -15 -15 -15 -15 -15 -15 -15 -15 -15 -15 -15 -16 -16 -16 -16 -16 -16 -16 -16 -16 -16 -16 -16 -16 -16 -16 -17
-13 -13 -13 -13 -13 -13 -13 -14 -13 -13 -13 -13 -14 -14 -14 -14 -14 -14 -14 -14 -14 -14 -14 -14 -14 -14 -15 -15 -15 -15 -14 -14 -14 -14 -14 -15 -15 -14 -14 -15 -15 -15 -15 -15 -15 -15 -15 -15 -15 -15 -15 -16 -16 -15 -15 -15 -15 -15 -16 -16 -16 -16 -16 -16 -16 -16 -16 -16 -16 -16 -17 -17 -17 -17
-13 -13 -13 -13 -13 -13 -13 -13 -13 -14 -14 -14 -14 -14 -14 -14 -14 -14 -14 -14 -14 -14 -14 -14 -14 -14 -15 -15 -15 -15 -15 -14 -15 -15 -15 -15 -15 -15 -15 -15 -15 -15 -15 -15 -15 -15 -15 -15 -16 -16 -16 -16 -16 -15 -15 -15 -16 -16 -16 -16 -16 -16 -16 -16 -16 -17 -17 -17 -17 -17 -17 -17 -17 -17
-13 -13 -13 -13 -13 -13 -13 -13 -14 -14 -14 -14 -14 -14 -14 -14 -14 -14 -14 -14 -14 -14 -14 -14 -14 -15 -15 -15 -15 -15 -15 -15 -15 -15 -15 -15 -15 -15 -15 -15 -15 -15 -15 -15 -15 -15 -16 -16 -16 -16 -16 -16 -16 -16 -16 -16 -16 -16 -16 -16 -16 -16 -17 -17 -17 -17 -17 -17 -17 -17 -17 -17 -17 -17
-13 -13 -13 -13 -13 -13 -13 -14 -14 -14 -14 -14 -14 -14 -14 -14 -14 -14 -14 -14 -14 -14 -14 -14 -14 -15 -15 -15 -15 -15 -15 -15 -15 -15 -15 -15 -15 -15 -15 -15 -15 -15 -15 -16 -16 -16 -16 -16 -16 -16 -16 -16 -16 -16 -16 -16 -16 -16 -16 -16 -16 -17 -17 -17 -17 -17 -17 -17 -17 -17 -17 -17 -18 -18
-13 -14 -14 -14 -14 -14 -14 -14 -14 -14 -14 -14 -14 -14 -14 -14 -14 -14 -14 -14 -14 -14 -14 -14 -15 -15 -15 -15 -15 -15 -15 -15 -15 -15 -16 -15 -15 -15 -16 -16 -16 -16 -16 -16 -16 -16 -16 -16 -16 -16 -16 -16 -16 -16 -16 -16 -16 -16 -16 -16 -17 -17 -17 -17 -17 -17 -17 -17 -17 -17 -17 -17 -18 -18
-14 -14 -14 -14 -14 -14 -14 -14 -14 -14 -14 -14 -14 -14 -14 -14 -14 -14 -14 -14 -14 -14 -14 -15 -15 -15 -15 -15 -15 -15 -15 -15 -16 -16 -16 -16 -15 -16 -16 -16 -16 -16 -16 -16 -16 -16 -16 -16 -16 -16 -16 -16 -16 -17 -17 -17 -17 -17 -17 -17 -17 -17 -17 -17 -17 -17 -17 -17 -17 -17 -18 -18 -18 -18
-14 -14 -14 -14 -14 -14 -14 -14 -14 -14 -14 -14 -14 -14 -14 -14 -14 -14 -14 -14 -14 -14 -14 -15 -15 -15 -15 -15 -15 -15 -15 -15 -16 -16 -16 -16 -16 -16 -16 -16 -16 -16 -16 -16 -16 -16 -16 -17 -17 -17 -17 -17 -17 -17 -17 -17 -17 -17 -17 -17 -17 -17 -17 -17 -17 -17 -18 -18 -18 -18 -18 -18 -18 -18
-14 -14 -14 -14 -14 -14 -14 -14 -14 -14 -14 -14 -14 -14 -14 -14 -14 -14 -15 -15 -15 -15 -14 -15 -15 -15 -15 -15 -15 -15 -15 -15 -16 -16 -16 -16 -16 -16 -16 -16 -16 -16 -16 -17 -17 -17 -17 -17 -17 -17 -17 -17 -17 -17 -17 -17 -17 -17 -17 -17 -17 -18 -18 -18 -18 -18 -18 -18 -18 -18 -18 -18 -18 -18
-14 -14 -14 -14 -14 -14 -14 -14 -14 -14 -14 -14 -14 -14 -15 -15 -14 -14 -15 -15 -15 -15 -15 -15 -15 -15 -15 -15 -15 -15 -15 -16 -16 -16 -16 -16 -16 -16 -16 -16 -16 -16 -17 -17 -17 -17 -17 -17 -17 -17 -17 -17 -17 -17 -17 -17 -17 -17 -17 -17 -18 -18 -18 -18 -18 -18 -18 -18 -18 -18 -18 -18 -18 -18
-14 -14 -14 -14 -14 -14 -14 -14 -14 -14 -14 -14 -14 -14 -15 -15 -15 -15 -15 -15 -15 -15 -15 -15 -15 -15 -16 -16 -16 -16 -16 -16 -16 -16 -16 -16 -16 -16 -16 -17 -17 -17 -17 -17 -17 -17 -17 -17 -17 -17 -17 -17 -17 -17 -17 -18 -18 -18 -18 -18 -18 -18 -18 -18 -18 -18 -18 -18 -18 -18 -18 -18 -18 -18
-15 -14 -14 -14 -14 -14 -14 -14 -14 -14 -14 -14 -14 -14 -15 -15 -15 -15 -15 -15 -15 -15 -15 -15 -15 -15 -16 -16 -16 -16 -16 -16 -16 -16 -16 -17 -17 -17 -17 -17 -17 -17 -17 -17 -17 -17 -17 -17 -17 -17 -17 -18 -18 -18 -18 -18 -18 -18 -18 -18 -18 -18 -18 -18 -18 -18 -18 -18 -18 -18 -18 -18 -18 -19
-15 -15 -14 -14 -14 -15 -15 -14 -14 -14 -15 -15 -15 -15 -15 -15 -15 -15 -15 -15 -15 -15 -15 -15 -16 -15 -15 -16 -16 -16 -16 -16 -16 -16 -17 -17 -17 -17 -17 -17 -17 -17 -17 -17 -17 -17 -17 -18 -18 -18 -18 -18 -18 -18 -18 -18 -18 -18 -18 -18 -18 -18 -18 -18 -18 -18 -18 -18 -18 -18 -18 -18 -19 -19
-15 -15 -15 -15 -14 -14 -15 -15 -14 -15 -15 -15 -15 -15 -15 -15 -15 -15 -15 -15 -15 -15 -15 -15 -15 -16 -16 -16 -16 -16 -16 -16 -16 -16 -17 -17 -17 -17 -17 -17 -17 -17 -17 -18 -18 -18 -18 -18 -18 -18 -18 -18 -18 -18 -18 -18 -18 -18 -18 -18 -18 -18 -18 -18 -18 -18 -18 -18 -18 -18 -19 -19 -19 -19
-15 -15 -15 -15 -15 -15 -15 -15 -15 -15 -15 -15 -15 -15 -15 -15 -15 -15 -15 -15 -15 -15 -16 -16 -16 -16 -16 -16 -16 -16 -16 -16 -16 -17 -17 -17 -17 -17 -17 -17 -17 -17 -18 -18 -18 -18 -18 -18 -18 -18 -18 -18 -18 -18 -18 -18 -18 -18 -18 -18 -18 -18 -18 -18 -18 -18 -18 -18 -18 -19 -19 -19 -20 -20
-15 -15 -15 -15 -15 -15 -15 -15 -15 -15 -15 -15 -15 -15 -15 -15 -15 -15 -15 -16 -16 -16 -16 -16 -16 -16 -16 -16 -16 -17 -17 -17 -17 -17 -17 -17 -17 -17 -17 -17 -17 -18 -18 -18 -18 -18 -18 -18 -18 -18 -18 -18 -18 -18 -18 -19 -19 -19 -19 -19 -19 -19 -19 -19 -19 -19 -18 -19 -19 -19 -19 -20 -20 -20
-15 -15 -15 -15 -15 -15 -15 -15 -15 -15 -15 -15 -15 -15 -15 -15 -15 -16 -16 -16 -16 -16 -16 -16 -16 -16 -16 -17 -17 -17 -17 -17 -17 -17 -17 -17 -17 -17 -17 -17 -18 -18 -18 -18 -18 -18 -18 -18 -18 -18 -18 -18 -19 -19 -18 -19 -19 -19 -19 -19 -19 -19 -19 -19 -19 -19 -19 -19 -19 -19 -20 -20 -20 -20
-16 -16 -16 -16 -16 -16 -15 -15 -15 -15 -16 -16 -16 -16 -16 -16 -16 -16 -16 -16 -16 -16 -16 -17 -17 -17 -17 -17 -17 -17 -17 -17 -17 -17 -17 -17 -17 -17 -17 -17 -18 -18 -18 -18 -18 -18 -18 -18 -18 -18 -18 -19 -19 -19 -19 -19 -19 -19 -19 -19 -19 -19 -19 -19 -19 -19 -19 -19 -20 -20 -20 -20 -20 -20
-16 -16 -16 -16 -16 -16 -16 -16 -16 -16 -16 -16 -16 -16 -16 -16 -16 -16 -16 -16 -17 -17 -17 -17 -17 -17 -17 -17 -17 -17 -17 -17 -17 -17 -17 -18 -18 -18 -18 -18 -18 -18 -18 -18 -18 -18 -18 -18 -18 -18 -19 -19 -19 -19 -19 -19 -19 -19 -19 -19 -19 -19 -19 -19 -19 -19 -19 -20 -20 -20 -20 -20 -20 -20
-16 -16 -16 -17 -17 -17 -16 -16 -16 -16 -16 -16 -16 -16 -16 -16 -16 -16 -16 -16 -17 -17 -17 -17 -17 -17 -17 -17 -17 -17 -17 -17 -18 -18 -18 -18 -18 -18 -18 -18 -18 -18 -18 -18 -18 -18 -18 -18 -18 -18 -18 -19 -19 -19 -19 -19 -19 -19 -19 -19 -19 -19 -19 -19 -19 -19 -20 -20 -20 -20 -20 -20 -20 -20
-16 -16 -16 -16 -17 -17 -17 -17 -17 -16 -16 -16 -16 -16 -17 -17 -17 -17 -17 -17 -17 -17 -17 -17 -17 -17 -18 -18 -18 -18 -18 -18 -18 -18 -18 -18 -18 -18 -18 -18 -18 -18 -18 -18 -18 -19 -19 -19 -19 -19 -19 -19 -19 -19 -19 -19 -19 -19 -19 -19 -19 -19 -19 -19 -20 -20 -20 -20 -20 -20 -20 -20 -20 -20
-16 -16 -16 -16 -16 -17 -17 -17 -17 -17 -17 -17 -17 -17 -17 -17 -17 -17 -17 -17 -17 -17 -17 -17 -17 -17 -18 -18 -18 -18 -18 -18 -18 -18 -18 -18 -18 -18 -18 -18 -18 -18 -18 -18 -19 -19 -19 -19 -19 -19 -19 -19 -19 -19 -19 -19 -19 -19 -19 -19 -19 -19 -20 -20 -20 -20 -20 -20 -20 -20 -20 -21 -21 -21
-17 -17 -17 -17 -17 -17 -17 -17 -17 -17 -17 -17 -17 -17 -17 -17 -17 -17 -17 -17 -18 -18 -18 -18 -18 -18 -18 -18 -18 -18 -18 -18 -18 -18 -18 -18 -18 -18 -18 -18 -18 -18 -18 -18 -19 -19 -19 -19 -19 -19 -19 -19 -19 -19 -19 -19 -19 -19 -19 -19 -20 -20 -20 -20 -20 -20 -20 -20 -20 -21 -21 -21 -21 -21
-17 -17 -17 -17 -17 -17 -17 -17 -17 -17 -17 -17 -17 -18 -18 -18 -18 -18 -18 -18 -18 -18 -18 -18 -18 -18 -18 -18 -18 -18 -18 -18 -18 -18 -18 -18 -18 -18 -18 -18 -18 -18 -19 -19 -19 -19 -19 -19 -19 -19 -19 -19 -19 -19 -19 -19 -19 -19 -20 -20 -20 -20 -20 -20 -20 -20 -20 -21 -21 -21 -21 -22 -22 -22
-17 -17 -17 -17 -17 -17 -17 -17 -17 -18 -18 -18 -18 -18 -18 -18 -18 -18 -18 -19 -19 -19 -19 -18 -18 -18 -18 -18 -18 -18 -18 -18 -18 -18 -19 -19 -19 -19 -19 -19 -19 -19 -19 -19 -19 -19 -19 -19 -19 -19 -19 -19 -19 -19 -19 -20 -20 -20 -20 -20 -20 -20 -20 -20 -20 -21 -21 -21 -21 -22 -22 -23 -23 -24
-18 -18 -18 -18 -18 -18 -18 -18 -18 -18 -18 -18 -18 -18 -18 -18 -19 -19 -19 -19 -19 -19 -19 -19 -19 -19 -19 -19 -19 -19 -19 -19 -19 -19 -19 -19 -19 -19 -19 -19 -19 -19 -19 -19 -19 -19 -19 -19 -19 -19 -20 -20 -20 -20 -20 -20 -20 -20 -20 -20 -20 -20 -20 -21 -21 -21 -21 -22 -22 -23 -24 -24 -25 -25
-18 -18 -18 -18 -18 -18 -18 -18 -18 -18 -19 -19 -19 -19 -19 -19 -19 -19 -19 -19 -19 -20 -20 -20 -20 -19 -19 -19 -19 -19 -19 -19 -19 -19 -19 -19 -19 -19 -19 -19 -19 -19 -19 -19 -19 -20 -20 -20 -20 -20 -20 -20 -20 -20 -20 -20 -20 -20 -20 -21 -21 -21 -21 -21 -22 -22 -22 -23 -23 -24 -25 -25 -25 -25
-19 -19 -19 -19 -19 -19 -19 -19 -19 -19 -19 -19 -19 -19 -19 -19 -19 -19 -19 -19 -19 -19 -20 -20 -20 -20 -20 -20 -20 -20 -20 -20 -20 -20 -20 -20 -20 -20 -20 -20 -20 -20 -20 -20 -20 -20 -20 -20 -20 -21 -20 -20 -20 -20 -20 -21 -21 -21 -21 -21 -22 -22 -22 -23 -23 -23 -24 -24 -25 -25 -25 -25 -26 -26
-20 -20 -20 -20 -21 -21 -21 -21 -21 -20 -20 -20 -20 -20 -20 -20 -20 -20 -20 -20 -20 -20 -20 -20 -20 -20 -20 -20 -20 -20 -20 -20 -20 -20 -20 -20 -20 -21 -21 -21 -21 -21 -21 -21 -21 -21 -21 -21 -21 -21 -21 -21 -21 -21 -21 -22 -22 -22 -22 -22 -23 -23 -24 -24 -25 -25 -26 -26 -26 -26 -26 -26 -26 -27
-21 -21 -21 -21 -21 -21 -21 -21 -21 -21 -21 -21 -21 -21 -21 -21 -21 -21 -21 -21 -21 -20 -20 -20 -20 -20 -21 -21 -21 -21 -21 -21 -21 -21 -21 -21 -21 -22 -22 -22 -22 -22 -21 -22 -21 -21 -21 -21 -21 -22 -22 -22 -22 -22 -22 -23 -23 -23 -23 -24 -24 -25 -25 -26 -26 -26 -27 -27 -27 -27 -27 -27 -27 -27
-21 -21 -21 -21 -21 -21 -21 -21 -21 -21 -21 -21 -21 -21 -21 -21 -21 -21 -21 -21 -21 -21 -21 -22 -22 -22 -22 -22 -22 -22 -22 -22 -22 -22 -22 -22 -22 -23 -23 -23 -23 -23 -22 -22 -22 -22 -22 -22 -22 -22 -23 -23 -23 -23 -23 -24 -24 -24 -25 -25 -26 -26 -27 -27 -27 -27 -27 -27 -27 -28 -28 -28 -28 -28
-22 -22 -22 -22 -22 -22 -22 -22 -22 -21 -21 -21 -21 -22 -22 -22 -22 -22 -22 -22 -22 -22 -22 -23 -23 -23 -24 -24 -24 -24 -24 -24 -24 -24 -23 -23 -23 -24 -24 -24 -24 -24 -23 -23 -23 -23 -23 -23 -23 -23 -24 -24 -24 -24 -24 -25 -25 -26 -26 -27 -27 -27 -27 -28 -28 -28 -28 -28 -28 -28 -28 -28 -28 -28
-22 -22 -22 -22 -22 -22 -22 -22 -22 -22 -22 -22 -22 -22 -22 -22 -22 -22 -22 -23 -23 -23 -23 -24 -24 -24 -24 -24 -24 -25 -25 -25 -25 -25 -25 -25 -25 -25 -25 -25 -25 -25 -25 -24 -24 -24 -24 -24 -24 -24 -25 -25 -25 -25 -26 -26 -26 -27 -27 -28 -28 -28 -28 -28 -28 -28 -28 -28 -28 -28 -28 -28 -28 -28
-22 -22 -22 -22 -22 -22 -22 -22 -22 -22 -22 -22 -22 -22 -22 -23 -23 -23 -23 -23 -23 -24 -24 -24 -24 -25 -25 -25 -25 -25 -25 -25 -25 -25 -25 -25 -25 -25 -26 -26 -26 -26 -26 -26 -25 -25 -25 -25 -25 -26 -26 -26 -26 -26 -27 -27 -28 -28 -28 -28 -28 -28 -28 -28 -28 -28 -29 -28 -28 -28 -28 -28 -28 -28
-23 -23 -23 -23 -23 -23 -23 -22 -22 -22 -23 -23 -23 -23 -23 -23 -23 -23 -23 -23 -24 -24 -24 -25 -25 -25 -25 -25 -25 -25 -25 -26 -26 -26 -26 -26 -26 -26 -26 -27 -27 -27 -27 -27 -27 -26 -26 -26 -26 -26 -27 -27 -28 -28 -28 -28 -28 -28 -28 -28 -28 -28 -28 -29 -29 -29 -29 -29 -29 -29 -29 -29 -29 -29
-23 -23 -23 -23 -23 -23 -23 -23 -23 -23 -23 -23 -23 -23 -23 -23 -23 -23 -24 -24 -24 -24 -25 -25 -25 -26 -26 -26 -26 -26 -26 -26 -26 -27 -27 -27 -27 -27 -27 -28 -28 -28 -28 -28 -27 -27 -27 -27 -27 -27 -28 -28 -29 -29 -29 -28 -28 -28 -28 -29 -29 -29 -29 -29 -29 -29 -29 -29 -29 -29 -29 -29 -29 -29
-23 -23 -23 -23 -23 -23 -23 -23 -23 -23 -23 -23 -23 -23 -23 -23 -24 -24 -24 -24 -24 -24 -25 -25 -26 -26 -26 -26 -26 -26 -26 -26 -27 -27 -28 -28 -28 -28 -28 -28 -29 -28 -28 -28 -28 -28 -28 -28 -28 -28 -29 -29 -29 -29 -29 -29 -29 -29 -29 -29 -29 -29 -29 -29 -29 -29 -29 -29 -29 -29 -29 -29 -29 -30
Height
5746 5747 5748 5749 5750 5752 5754 5757 5759 5761 5762 5762 5763 5764 5765 5766 5768 5770 5770 5771 5772 5773 5774 5775 5775 5776 5777 5777 5777 5777 5778 5778 5778 5778 5779 5779 5779 5780 5780 5780 5780 5781 5781 5781 5782 5782 5781 5781 5780 5780 5779 5778 5777 5776 5776 5775 5775 5775 5775 5775 5775 5775 5774 5774 5774 5774 5773 5773 5772 5772 5772 5771 5771 5770
5744 5745 5746 5747 5748 5750 5752 5754 5757 5758 5758 5759 5760 5761 5762 5764 5765 5766 5767 5768 5769 5771 5771 5772 5772 5772 5774 5774 5774 5775 5775 5775 5776 5776 5776 5776 5776 5777 5777 5778 5778 5778 5778 5779 5779 5779 5779 5779 5778 5778 5777 5776 5776 5775 5774 5773 5773 5773 5772 5772 5772 5772 5772 5771 5771 5770 5770 5770 5769 5769 5768 5768 5768 5767
5742 5743 5745 5746 5747 5748 5749 5751 5754 5755 5756 5756 5758 5758 5759 5761 5762 5763 5764 5765 5767 5768 5769 5769 5769 5770 5771 5772 5772 5772 5772 5773 5773 5773 5773 5774 5774 5774 5775 5775 5775 5775 5776 5776 5776 5776 5776 5776 5776 5775 5775 5774 5774 5773 5772 5772 5771 5770 5770 5770 5769 5769 5768 5768 5767 5767 5767 5767 5766 5766 5765 5765 5764 5764
5740 5741 5743 5744 5745 5746 5747 5748 5750 5752 5753 5754 5755 5756 5757 5758 5759 5761 5762 5762 5764 5765 5765 5765 5766 5767 5768 5769 5769 5769 5769 5770 5770 5770 5770 5771 5771 5772 5772 5772 5772 5772 5773 5773 5773 5773 5773 5773 5773 5772 5772 5772 5771 5771 5770 5769 5768 5768 5767 5767 5766 5766 5765 5765 5764 5764 5764 5763 5763 5762 5762 5761 5761 5761
5739 5740 5741 5741 5742 5743 5744 5745 5746 5748 5749 5750 5751 5752 5754 5755 5757 5758 5759 5760 5761 5762 5762 5762 5764 5765 5765 5766 5766 5766 5766 5767 5767 5767 5767 5768 5768 5769 5770 5770 5769 5769 5769 5770 5770 5770 5770 5770 5770 5769 5769 5769 5769 5768 5768 5767 5766 5765 5764 5763 5763 5762 5762 5762 5761 5761 5761 5760 5760 5759 5758 5758 5757 5757
5738 5738 5738 5739 5740 5740 5741 5742 5743 5744 5746 5747 5748 5749 5751 5752 5753 5754 5756 5756 5758 5759 5758 5759 5761 5761 5762 5763 5763 5762 5763 5764 5764 5764 5764 5765 5766 5766 5767 5767 5766 5766 5766 5766 5767 5767 5766 5766 5766 5766 5766 5766 5765 5765 5765 5764 5763 5763 5761 5760 5760 5759 5759 5758 5758 5757 5757 5757 5756 5756 5755 5754 5754 5753
5735 5736 5736 5736 5737 5737 5738 5739 5740 5742 5743 5745 5746 5748 5749 5749 5749 5750 5751 5752 5754 5755 5755 5756 5757 5758 5759 5759 5759 5759 5760 5761 5762 5762 5762 5762 5763 5764 5764 5764 5763 5763 5763 5763 5763 5763 5763 5763 5763 5763 5763 5762 5762 5762 5761 5761 5760 5759 5758 5757 5757 5756 5755 5754 5754 5754 5753 5753 5752 5752 5751 5751 5750 5749
5732 5733 5734 5734 5734 5735 5736 5737 5738 5739 5740 5742 5744 5745 5745 5745 5745 5747 5748 5749 5750 5751 5752 5753 5754 5755 5755 5756 5757 5756 5757 5759 5759 5759 5759 5760 5760 5761 5761 5761 5760 5760 5760 5760 5760 5760 5760 5760 5760 5760 5760 5759 5759 5758 5757 5757 5756 5756 5755 5754 5753 5752 5751 5751 5750 5750 5750 5749 5748 5748 5747 5747 5746 5745
5730 5731 5732 5732 5732 5732 5734 5735 5735 5735 5736 5738 5740 5741 5741 5742 5743 5744 5745 5745 5745 5747 5749 5750 5751 5752 5752 5752 5754 5754 5754 5755 5756 5756 5756 5757 5758 5758 5758 5757 5757 5757 5757 5757 5756 5756 5757 5757 5757 5757 5756 5756 5755 5754 5753 5753 5752 5752 5751 5751 5750 5749 5748 5748 5747 5746 5746 5745 5744 5744 5743 5743 5742 5741
5728 5728 5729 5729 5729 5730 5731 5732 5732 5733 5733 5734 5736 5737 5738 5738 5739 5740 5741 5742 5742 5744 5745 5746 5748 5749 5748 5749 5750 5751 5751 5752 5753 5753 5754 5754 5755 5755 5754 5754 5754 5754 5754 5754 5753 5754 5754 5754 5754 5753 5753 5752 5751 5750 5750 5749 5749 5748 5748 5748 5747 5746 5745 5744 5743 5743 5742 5742 5741 5740 5740 5739 5738 5737
5725 5725 5726 5726 5727 5727 5728 5729 5729 5730 5731 5731 5732 5733 5734 5735 5737 5737 5738 5739 5740 5741 5742 5743 5744 5744 5745 5746 5747 5747 5747 5749 5750 5751 5751 5751 5751 5751 5751 5751 5751 5751 5751 5750 5750 5751 5751 5750 5750 5749 5748 5747 5747 5747 5746 5746 5745 5745 5745 5744 5743 5742 5742 5741 5740 5740 5739 5738 5738 5737 5736 5735 5734 5734
5722 5722 5724 5725 5725 5725 5726 5726 5727 5728 5729 5729 5730 5731 5731 5732 5733 5734 5735 5736 5737 5737 5738 5739 5740 5741 5742 5742 5742 5743 5745 5745 5746 5747 5747 5747 5747 5747 5747 5747 5747 5748 5747 5747 5747 5747 5747 5747 5746 5745 5744 5744 5743 5743 5742 5742 5741 5741 5741 5740 5739 5739 5738 5738 5737 5736 5735 5735 5734 5733 5732 5731 5731 5730
5719 5720 5721 5722 5723 5722 5723 5723 5724 5725 5726 5727 5728 5728 5729 5729 5729 5730 5731 5732 5733 5734 5734 5736 5737 5738 5738 5739 5739 5741 5741 5741 5742 5743 5743 5743 5743 5744 5744 5744 5743 5744 5743 5743 5743 5743 5743 5743 5742 5741 5741 5740 5740 5739 5738 5738 5737 5737 5737 5736 5736 5735 5735 5734 5733 5733 5732 5731 5730 5729 5728 5728 5727 5726
5717 5717 5718 5719 5719 5719 5719 5719 5720 5721 5723 5724 5724 5725 5725 5726 5727 5727 5728 5729 5730 5730 5731 5732 5733 5734 5735 5736 5736 5736 5737 5738 5739 5740 5739 5739 5739 5740 5740 5740 5740 5740 5739 5739 5739 5739 5739 5739 5738 5738 5737 5737 5736 5735 5735 5734 5734 5733 5733 5732 5732 5732 5731 5731 5730 5729 5728 5727 5726 5725 5724 5724 5723 5722
5714 5714 5715 5716 5716 5716 5716 5716 5716 5717 5719 5720 5720 5720 5721 5722 5723 5724 5725 5726 5727 5728 5729 5729 5730 5731 5732 5732 5733 5733 5734 5734 5736 5736 5735 5735 5736 5736 5736 5736 5736 5736 5735 5735 5735 5735 5735 5735 5734 5734 5734 5733 5732 5732 5731 5730 5729 5729 5728 5728 5728 5728 5727 5727 5726 5725 5724 5722 5721 5720 5720 5719 5718 5717
5710 5711 5712 5713 5713 5713 5713 5713 5713 5714 5715 5717 5717 5717 5717 5718 5720 5721 5721 5722 5723 5725 5726 5726 5727 5729 5729 5729 5730 5731 5730 5730 5731 5731 5731 5731 5732 5732 5732 5732 5732 5731 5731 5731 5731 5731 5731 5731 5730 5730 5730 5729 5728 5728 5727 5726 5725 5725 5725 5724 5724 5724 5723 5723 5722 5721 5719 5717 5716 5715 5714 5714 5713 5712
5708 5708 5709 5710 5710 5710 5710 5711 5711 5711 5712 5713 5714 5714 5714 5715 5716 5717 5718 5719 5720 5722 5724 5724 5725 5725 5725 5725 5726 5727 5727 5726 5727 5727 5727 5727 5727 5727 5727 5727 5727 5727 5726 5726 5726 5726 5726 5726 5726 5726 5725 5725 5724 5723 5722 5722 5721 5721 5720 5720 5720 5720 5719 5718 5717 5716 5714 5712 5711 5710 5708 5707 5707 5705
5706 5706 5706 5707 5707 5707 5707 5708 5708 5709 5710 5711 5711 5711 5711 5712 5713 5714 5715 5717 5718 5719 5720 5721 5721 5722 5721 5721 5722 5723 5723 5723 5723 5723 5723 5722 5723 5723 5723 5723 5723 5722 5722 5722 5722 5722 5722 5722 5722 5721 5721 5720 5719 5718 5717 5717 5716 5716 5716 5715 5715 5715 5714 5713 5712 5711 5709 5707 5705 5704 5702 5701 5700 5698
5704 5704 5704 5704 5705 5705 5705 5705 5705 5706 5707 5708 5708 5708 5708 5709 5710 5712 5713 5714 5715 5716 5716 5716 5718 5719 5718 5718 5719 5719 5719 5719 5719 5719 5719 5719 5719 5719 5719 5719 5719 5719 5718 5718 5718 5718 5718 5718 5717 5716 5716 5715 5714 5713 5712 5711 5711 5711 5710 5710 5710 5709 5709 5708 5707 5705 5703 5701 5699 5698 5697 5695 5693 5691
5701 5701 5701 5701 5702 5702 5702 5702 5702 5703 5704 5705 5705 5705 5705 5706 5708 5709 5710 5711 5712 5713 5713 5713 5714 5714 5715 5715 5715 5714 5715 5715 5716 5716 5715 5715 5716 5716 5716 5716 5715 5715 5714 5715 5715 5714 5714 5713 5713 5711 5710 5709 5708 5708 5707 5706 5705 5705 5705 5705 5704 5703 5703 5702 5701 5699 5696 5694 5693 5692 5690 5688 5686 5685
5699 5699 5699 5699 5699 5699 5699 5700 5700 5700 5701 5702 5702 5702 5703 5704 5705 5707 5708 5708 5709 5710 5711 5711 5711 5710 5712 5712 5711 5710 5711 5712 5712 5712 5712 5712 5712 5713 5712 5712 5711 5710 5710 5710 5710 5709 5709 5709 5708 5707 5706 5705 5704 5703 5703 5702 5701 5701 5700 5700 5699 5698 5697 5696 5695 5693 5690 5689 5687 5685 5683 5681 5679 5678
5697 5697 5697 5697 5697 5697 5697 5698 5698 5698 5698 5699 5700 5700 5700 5701 5702 5704 5705 5706 5706 5706 5708 5708 5708 5708 5708 5708 5708 5708 5708 5708 5708 5708 5709 5709 5709 5709 5708 5707 5707 5707 5707 5706 5705 5704 5704 5704 5703 5702 5701 5700 5700 5699 5698 5697 5696 5696 5695 5694 5692 5691 5690 5689 5687 5686 5684 5682 5681 5679 5676 5674 5672 5671
5695 5695 5695 5695 5695 5695 5695 5695 5696 5696 5696 5697 5697 5698 5698 5698 5699 5700 5701 5702 5702 5703 5703 5704 5705 5705 5704 5704 5705 5704 5704 5704 5705 5705 5705 5704 5704 5705 5704 5703 5702 5702 5702 5701 5700 5699 5699 5698 5697 5696 5696 5695 5694 5693 5692 5691 5691 5690 5688 5687 5686 5684 5683 5681 5680 5679 5677 5675 5674 5671 5669 5668 5666 5664
5693 5692 5692 5692 5692 5692 5692 5693 5693 5693 5694 5694 5695 5695 5695 5695 5696 5696 5696 5697 5698 5698 5698 5699 5700 5701 5700 5701 5702 5701 5699 5700 5701 5701 5700 5700 5700 5700 5700 5699 5697 5697 5697 5696 5695 5695 5694 5692 5691 5691 5690 5689 5688 5687 5686 5685 5685 5684 5682 5680 5679 5678 5676 5675 5674 5673 5672 5670 5667 5664 5662 5661 5659 5657
5692 5691 5691 5690 5690 5690 5690 5690 5690 5691 5691 5691 5692 5692 5692 5692 5692 5692 5693 5693 5694 5695 5695 5695 5696 5696 5696 5697 5698 5697 5696 5697 5698 5697 5696 5696 5696 5696 5696 5694 5692 5691 5692 5692 5691 5690 5689 5687 5686 5686 5685 5684 5682 5681 5681 5680 5679 5678 5676 5674 5672 5671 5669 5668 5667 5666 5664 5662 5660 5658 5655 5654 5652 5650
5690 5690 5690 5689 5689 5689 5688 5688 5688 5688 5688 5688 5689 5689 5689 5689 5689 5689 5689 5690 5691 5691 5692 5692 5692 5692 5692 5693 5693 5693 5693 5693 5693 5692 5691 5691 5691 5690 5690 5689 5687 5686 5687 5686 5685 5685 5684 5682 5682 5681 5679 5678 5676 5675 5674 5673 5672 5671 5669 5667 5665 5664 5662 5660 5659 5658 5656 5654 5653 5651 5649 5647 5644 5642
5688 5688 5688 5688 5688 5688 5687 5686 5686 5686 5686 5686 5686 5686 5686 5686 5686 5686 5686 5686 5687 5687 5687 5687 5687 5687 5687 5687 5688 5688 5687 5687 5687 5687 5686 5685 5685 5684 5684 5683 5682 5681 5681 5680 5680 5680 5679 5676 5675 5675 5673 5671 5670 5669 5668 5666 5665 5663 5661 5660 5658 5656 5654 5652 5651 5649 5649 5647 5645 5643 5641 5639 5637 5634
5686 5685 5685 5686 5686 5686 5685 5685 5684 5684 5683 5683 5683 5683 5683 5683 5683 5683 5683 5682 5682 5682 5682 5682 5681 5681 5681 5681 5681 5681 5681 5681 5680 5679 5679 5678 5678 5677 5677 5676 5675 5675 5674 5674 5673 5673 5672 5670 5668 5667 5666 5664 5662 5661 5660 5659 5657 5656 5654 5653 5651 5648 5647 5645 5643 5642 5641 5639 5637 5635 5634 5632 5630 5627
5683 5683 5682 5682 5682 5682 5682 5682 5682 5681 5681 5680 5680 5680 5680 5679 5679 5679 5679 5679 5678 5677 5677 5677 5676 5675 5675 5675 5675 5674 5674 5673 5672 5672 5672 5671 5670 5669 5669 5668 5668 5667 5666 5666 5665 5665 5664 5662 5660 5659 5658 5656 5654 5653 5652 5651 5650 5648 5647 5645 5642 5640 5639 5638 5636 5634 5632 5630 5628 5626 5625 5624 5622 5620
5680 5680 5679 5678 5678 5678 5678 5678 5677 5677 5677 5677 5676 5676 5675 5675 5675 5674 5674 5674 5673 5673 5672 5672 5671 5671 5670 5669 5668 5668 5667 5667 5666 5666 5665 5664 5663 5662 5662 5661 5660 5659 5658 5657 5656 5655 5655 5654 5653 5651 5650 5649 5647 5644 5643 5644 5642 5640 5639 5638 5635 5633 5632 5630 5627 5625 5623 5621 5619 5618 5617 5615 5613 5611
5677 5676 5676 5675 5674 5674 5673 5673 5672 5672 5672 5672 5671 5671 5671 5670 5670 5669 5668 5668 5668 5667 5667 5666 5666 5665 5664 5663 5662 5661 5661 5661 5660 5659 5658 5657 5656 5655 5655 5654 5652 5651 5650 5649 5647 5646 5645 5645 5644 5643 5642 5640 5639 5637 5636 5636 5634 5632 5631 5631 5628 5626 5624 5622 5619 5617 5615 5614 5612 5610 5608 5606 5604 5602
5673 5672 5672 5671 5670 5670 5669 5668 5668 5667 5667 5666 5666 5665 5665 5665 5664 5663 5663 5662 5662 5661 5660 5659 5659 5658 5657 5656 5655 5654 5654 5653 5652 5651 5651 5649 5648 5648 5647 5646 5645 5644 5642 5641 5639 5638 5636 5635 5635 5635 5633 5632 5630 5629 5628 5627 5625 5623 5623 5622 5621 5619 5617 5615 5613 5610 5608 5606 5604 5602 5600 5598 5596 5595
5669 5668 5667 5667 5666 5665 5664 5664 5663 5662 5661 5661 5660 5659 5659 5658 5657 5657 5656 5655 5655 5654 5653 5652 5651 5650 5649 5648 5647 5647 5646 5645 5644 5643 5642 5641 5640 5639 5638 5637 5636 5635 5634 5632 5631 5629 5627 5626 5626 5625 5624 5623 5621 5620 5618 5617 5616 5615 5614 5613 5612 5611 5609 5608 5606 5603 5601 5598 5596 5594 5593 5591 5590 5589
5663 5663 5662 5661 5661 5660 5659 5659 5658 5657 5656 5655 5654 5653 5652 5651 5650 5649 5649 5648 5647 5646 5645 5644 5643 5641 5640 5639 5638 5638 5637 5636 5635 5635 5634 5632 5631 5630 5629 5628 5627 5626 5625 5623 5622 5620 5619 5617 5616 5615 5614 5613 5612 5610 5609 5608 5607 5606 5604 5604 5603 5602 5600 5599 5599 5597 5595 5592 5589 5588 5586 5585 5584 5583
5659 5658 5657 5656 5655 5655 5654 5653 5652 5651 5650 5649 5648 5647 5646 5644 5643 5642 5641 5640 5639 5638 5636 5635 5634 5632 5631 5630 5629 5629 5627 5626 5625 5626 5625 5623 5621 5620 5619 5617 5616 5616 5615 5614 5612 5611 5610 5608 5607 5606 5605 5604 5602 5600 5598 5598 5597 5596 5595 5595 5594 5593 5591 5590 5590 5589 5588 5585 5584 5582 5581 5580 5579 5577
5654 5653 5652 5652 5651 5650 5649 5648 5647 5646 5645 5644 5643 5641 5640 5638 5637 5635 5633 5632 5630 5629 5627 5626 5624 5623 5622 5621 5619 5618 5617 5615 5615 5616 5615 5613 5611 5611 5609 5608 5606 5605 5605 5604 5602 5601 5601 5600 5599 5597 5596 5594 5593 5590 5588 5587 5587 5587 5587 5586 5585 5584 5582 5581 5581 5581 5580 5579 5578 5577 5576 5575 5573 5571
5651 5650 5649 5648 5647 5646 5645 5644 5643 5642 5640 5639 5638 5636 5634 5632 5630 5628 5626 5624 5623 5621 5618 5616 5615 5613 5611 5610 5608 5607 5606 5605 5605 5605 5605 5603 5602 5601 5599 5598 5597 5596 5595 5594 5592 5591 5592 5592 5591 5590 5587 5585 5584 5582 5579 5578 5578 5578 5579 5578 5577 5576 5576 5575 5574 5574 5573 5573 5572 5571 5571 5569 5568 5566
5649 5648 5647 5646 5645 5644 5643 5641 5640 5639 5637 5636 5634 5632 5630 5627 5625 5622 5619 5617 5615 5613 5610 5607 5606 5604 5601 5599 5597 5596 5596 5595 5594 5594 5594 5593 5592 5591 5590 5589 5588 5587 5586 5584 5582 5582 5583 5583 5583 5582 5578 5576 5575 5573 5571 5570 5570 5571 5572 5571 5570 5570 5570 5569 5569 5569 5568 5568 5567 5566 5565 5564 5562 5561
5647 5646 5645 5644 5643 5641 5640 5639 5637 5636 5634 5632 5631 5629 5626 5624 5621 5618 5615 5612 5609 5606 5603 5600 5598 5596 5593 5590 5588 5587 5586 5584 5583 5583 5583 5582 5582 5581 5580 5580 5579 5579 5578 5576 5574 5573 5574 5573 5574 5573 5571 5568 5567 5566 5564 5564 5564 5564 5565 5565 5565 5565 5565 5565 5565 5564 5564 5563 5562 5561 5560 5559 5558 5557
5644 5643 5642 5641 5640 5638 5637 5635 5634 5632 5630 5629 5627 5625 5623 5620 5617 5614 5611 5608 5605 5601 5598 5595 5592 5590 5586 5584 5582 5580 5578 5576 5575 5574 5574 5573 5572 5571 5571 5571 5571 5571 5571 5569 5566 5566 5565 5565 5565 5565 5564 5562 5561 5559 5558 5559 5559 5559 5559 5560 5560 5561 5561 5560 5560 5559 5558 5558 5557 5556 5556 5555 5554 5553
5642 5640 5639 5638 5636 5634 5633 5631 5630 5628 5626 5624 5623 5621 5618 5616 5613 5610 5607 5604 5601 5597 5594 5591 5588 5585 5582 5579 5576 5574 5572 5570 5569 5568 5566 5565 5564 5563 5563 5562 5562 5562 5563 5562 5559 5558 5558 5558 5558 5558 5557 5556 5555 5554 5553 5554 5555 5555 5555 5556 5557 5557 5556 5556 5556 5555 5554 5554 5553 5553 5552 5551 5550 5549
5639 5637 5636 5634 5633 5631 5629 5627 5626 5623 5621 5619 5617 5615 5613 5610 5608 5605 5602 5599 5596 5593 5590 5586 5584 5581 5578 5575 5572 5569 5566 5564 5563 5562 5560 5559 5557 5556 5555 5555 5554 5554 5555 5554 5552 5551 5552 5553 5551 5551 5551 5551 5550 5549 5549 5550 5551 5552 5552 5552 5552 5552 5552 5552 5552 5551 5550 5550 5549 5549 5548 5547 5546 5545
5635 5634 5632 5630 5629 5627 5625 5623 5621 5619 5617 5615 5612 5610 5608 5606 5603 5600 5597 5594 5591 5588 5585 5582 5579 5577 5574 5571 5568 5565 5562 5559 5557 5556 5554 5553 5552 5550 5549 5548 5548 5548 5548 5548 5547 5546 5547 5548 5547 5546 5546 5546 5546 5545 5546 5547 5548 5549 5549 5549 5548 5548 5548 5548 5548 5547 5546 5546 5545 5545 5544 5543 5542 5541
5632 5630 5628 5626 5625 5623 5621 5619 5617 5615 5613 5610 5608 5606 5604 5601 5599 5596 5593 5590 5587 5584 5581 5578 5575 5572 5569 5567 5564 5562 5559 5555 5552 5551 5549 5548 5546 5545 5544 5543 5543 5542 5542 5542 5542 5542 5543 5543 5543 5543 5543 5543 5543 5543 5544 5545 5545 5545 5545 5545 5544 5544 5544 5544 5543 5543 5542 5542 5542 5541 5541 5540 5539 5538
5628 5626 5625 5623 5621 5619 5617 5615 5613 5611 5609 5607 5604 5602 5600 5598 5595 5592 5590 5587 5583 5580 5577 5574 5571 5568 5565 5563 5560 5558 5555 5552 5549 5546 5544 5543 5542 5541 5540 5539 5539 5539 5538 5538 5538 5538 5539 5539 5540 5540 5541 5541 5541 5540 5541 5541 5541 5540 5540 5540 5540 5540 5540 5540 5540 5539 5539 5539 5538 5538 5537 5537 5536 5534
Wind_Speed
23 26 29 30 31 30 28 27 27 26 28 29 28 28 28 28 26 25 23 23 23 23 23 23 23 22 21 20 20 20 20 20 19 19 19 19 18 18 17 17 17 17 16 17 17 17 18 19 19 19 19 19 18 18 17 17 17 17 17 18 18 19 20 20 20 21 21 21 21 21 22 22 22 22
22 24 25 26 27 26 26 26 26 27 29 30 29 29 29 27 26 26 25 24 23 23 23 23 24 23 21 20 20 20 20 20 20 20 20 19 19 19 18 18 17 17 17 16 17 18 18 19 19 19 18 19 19 18 18 18 17 17 18 18 19 19 20 21 21 22 22 22 23 23 23 23 24 24
22 23 23 23 24 24 25 25 26 27 29 29 29 29 29 27 26 27 26 24 23 23 24 24 25 24 21 20 20 21 21 21 20 20 20 19 19 19 19 18 18 17 17 17 17 17 18 18 18 18 18 18 19 19 18 18 18 18 18 19 20 21 22 22 23 23 24 24 24 25 25 25 26 26
20 22 22 22 23 24 24 25 25 27 28 29 29 29 28 27 27 27 26 24 23 24 25 26 26 24 22 21 21 22 22 21 20 20 20 20 20 20 19 19 18 18 18 18 17 17 18 19 19 19 19 19 19 19 19 19 19 19 20 21 22 23 23 24 24 25 25 25 26 26 27 27 27 28
19 20 21 22 23 24 24 25 25 26 28 28 29 29 27 26 27 27 26 25 24 25 27 28 26 24 22 22 22 22 22 21 20 21 20 20 20 20 20 20 19 19 19 18 18 18 19 20 20 20 20 20 20 20 20 21 21 21 22 23 23 24 24 25 25 26 26 27 27 28 28 29 29 29
19 20 21 22 23 23 24 25 25 26 27 27 28 27 26 26 27 27 26 26 25 26 29 29 26 24 24 23 23 23 23 21 21 21 21 21 21 21 21 21 20 20 20 19 19 19 20 21 21 21 21 21 21 21 22 22 23 23 24 24 24 25 25 26 26 27 27 28 29 29 30 31 31 31
20 20 21 22 22 23 23 24 25 25 26 26 27 27 27 28 30 29 28 27 25 26 29 29 26 25 25 24 23 23 23 22 22 23 23 22 22 22 22 22 21 21 21 20 20 21 22 23 22 22 22 22 22 22 23 24 24 25 25 25 26 26 26 27 27 28 28 29 30 30 31 31 32 32
20 20 20 20 21 21 22 23 24 25 26 27 28 28 28 29 30 30 28 27 27 28 29 28 26 25 24 24 23 23 23 22 23 24 24 24 24 23 23 23 22 22 22 21 22 23 24 24 24 23 23 22 23 23 24 25 26 26 27 27 27 27 27 27 28 28 28 29 30 30 31 31 31 32
19 19 19 20 21 21 21 23 24 25 26 28 28 29 28 29 30 30 29 28 28 28 28 27 25 23 24 25 24 24 24 23 24 26 25 25 25 24 24 24 24 23 23 23 24 24 25 25 25 24 23 24 24 25 26 27 27 28 28 28 28 27 27 27 27 28 28 29 29 29 30 30 30 31
19 20 21 21 22 22 23 24 25 26 27 27 28 28 29 30 30 30 30 29 29 28 27 26 25 25 27 27 25 26 26 25 25 27 26 26 26 26 26 26 25 24 24 24 25 26 26 26 26 25 25 26 26 27 28 28 29 29 29 28 27 27 27 27 27 28 28 28 28 29 29 30 30 30
20 20 21 21 22 24 25 26 27 28 29 29 29 29 30 30 30 31 31 30 30 30 28 27 28 29 28 27 27 27 26 26 26 26 26 27 27 27 27 26 26 25 25 26 27 27 27 27 27 27 28 28 28 29 29 29 29 29 28 28 28 28 28 28 27 27 27 27 28 29 29 30 31 31
19 19 20 20 22 24 26 28 29 29 29 30 30 30 30 30 30 32 32 32 32 31 29 29 30 30 29 29 28 26 25 26 26 27 27 28 28 28 27 27 27 26 27 27 27 28 28 29 29 29 29 29 29 29 29 29 29 29 29 29 30 29 28 28 27 26 26 26 27 29 30 30 31 32
17 18 19 20 22 24 25 27 28 28 28 29 29 29 30 30 30 30 31 32 32 31 30 29 30 31 29 29 29 27 27 28 27 27 28 29 29 29 28 28 28 27 27 28 28 29 29 30 30 30 30 29 28 29 29 30 30 30 30 30 30 30 29 27 26 26 26 27 28 29 30 31 32 33
17 18 19 20 21 22 23 24 26 26 27 27 27 27 28 29 30 31 32 31 31 31 29 29 30 29 27 28 30 29 28 27 26 27 29 30 30 30 28 28 28 27 28 29 29 29 30 30 30 30 30 29 29 29 30 30 31 31 31 30 30 29 28 27 26 27 28 29 30 32 33 34 34 35
19 19 20 20 21 21 22 24 25 26 26 26 26 26 27 28 29 31 33 32 31 30 29 29 28 27 26 29 31 30 28 27 27 29 30 30 29 28 28 28 27 28 29 29 29 29 29 30 31 31 31 30 30 30 30 31 32 32 32 31 30 29 28 28 29 30 30 31 33 35 36 36 36 37
18 19 20 20 20 21 22 23 24 25 25 25 26 25 26 27 28 30 31 31 30 29 28 28 27 25 27 30 30 30 31 30 29 28 28 28 28 27 28 28 28 28 29 29 29 30 31 31 31 31 32 32 32 31 31 32 32 32 31 31 30 29 29 30 31 32 34 36 38 39 40 40 39 41
18 18 18 19 20 21 22 23 23 24 24 24 24 24 26 27 28 30 30 29 30 29 28 28 27 27 29 31 30 30 31 30 27 26 26 27 28 29 29 29 28 29 30 30 30 31 31 32 32 33 34 34 34 34 34 34 33 32 32 31 30 29 30 31 32 35 38 41 42 43 44 44 44 45
18 18 18 19 20 21 22 23 24 24 24 23 24 25 27 27 28 29 29 29 29 27 27 28 28 29 32 31 30 29 28 28 28 28 28 29 29 29 29 29 29 30 31 31 31 31 32 34 35 36 36 36 36 36 36 35 34 34 34 33 32 32 32 33 35 37 41 44 45 46 47 47 48 49
18 19 19 20 20 21 22 23 24 24 23 24 26 27 27 27 27 27 27 28 27 26 27 28 27 29 31 30 29 28 28 29 29 28 28 28 28 28 29 29 30 32 33 33 33 34 35 36 37 37 37 37 37 36 36 35 35 35 35 34 34 35 35 36 38 41 44 47 48 49 49 49 50 51
16 17 18 19 20 20 21 21 23 23 22 22 23 24 26 27 26 26 26 27 26 26 28 27 26 27 27 25 27 29 29 28 27 25 26 27 27 28 29 30 32 34 34 35 36 36 35 36 37 37 38 37 37 36 37 37 38 38 38 37 37 38 39 40 42 45 47 49 50 50 50 50 51 50
15 16 16 17 17 19 20 21 22 22 22 23 23 22 23 25 26 27 27 26 25 25 26 25 26 28 27 25 28 30 28 26 25 24 26 26 27 29 30 30 32 33 34 34 35 35 35 35 36 37 37 37 37 37 38 40 40 41 40 40 40 41 42 43 45 47 48 49 49 50 50 50 49 48
14 15 15 15 16 18 18 18 18 18 20 22 24 23 22 23 25 26 25 25 24 24 25 27 27 27 29 30 32 31 29 29 30 30 29 30 30 30 29 30 32 31 30 31 32 34 35 35 36 37 37 37 38 38 39 41 41 42 42 42 43 44 45 46 47 48 49 50 50 50 50 48 47 47
15 16 16 16 16 16 16 17 18 18 19 21 23 23 22 24 26 25 24 25 26 25 25 27 27 27 30 31 30 29 30 31 31 30 31 33 35 33 31 32 34 31 29 31 33 34 35 36 37 38 38 39 39 40 41 42 43 43 44 45 45 46 47 48 49 50 52 53 53 52 50 48 47 48
17 18 18 16 16 15 16 17 19 20 21 21 23 25 26 26 27 28 26 26 28 28 30 31 30 32 34 32 29 29 31 31 29 28 30 32 34 34 34 35 36 35 35 36 36 36 37 38 39 40 39 40 41 42 42 43 45 46 48 49 48 48 49 49 51 53 54 54 54 52 50 49 48 48
16 17 16 15 14 14 14 16 18 21 23 23 24 26 28 28 28 28 27 27 27 29 32 33 32 33 34 32 29 30 30 30 30 32 35 36 36 37 38 39 39 40 40 40 38 38 39 40 41 42 42 43 44 45 45 45 47 49 51 52 52 52 53 53 55 57 57 55 53 52 50 50 50 50
14 15 15 14 14 14 15 17 19 21 23 25 26 26 28 30 30 29 28 28 28 29 30 31 30 30 31 30 30 31 32 32 33 36 39 40 40 40 41 41 41 41 41 40 40 40 41 43 44 45 46 46 47 48 47 48 49 51 52 54 54 55 56 57 59 59 57 54 52 51 51 52 54 55
14 15 15 14 15 16 18 19 21 21 22 22 23 24 26 29 31 32 32 30 29 29 30 30 30 31 32 33 33 34 35 36 37 39 41 41 42 43 43 43 43 43 42 42 42 41 41 43 46 47 48 49 49 50 51 51 52 53 54 55 55 56 59 61 62 59 56 54 53 54 55 56 57 58
18 18 17 17 17 18 19 21 22 24 25 25 25 25 25 27 29 31 32 32 32 32 32 33 34 35 36 36 36 36 37 38 38 39 40 42 43 43 43 43 43 44 44 43 44 43 42 44 46 49 51 52 53 54 55 55 55 56 56 56 57 60 62 62 60 57 56 55 56 56 57 57 58 58
21 21 21 21 21 21 21 22 23 25 26 28 28 29 29 29 30 31 33 34 35 35 35 36 37 38 39 38 38 39 40 42 42 43 43 44 44 43 43 43 43 44 44 45 45 46 45 46 48 50 52 54 56 58 58 57 57 56 56 58 61 62 61 59 57 57 57 57 57 57 57 57 58 58
23 23 24 24 25 25 25 25 26 26 26 27 28 30 31 33 35 36 36 36 36 36 37 38 39 41 41 42 42 44 45 46 47 48 48 47 46 46 46 47 47 47 48 49 49 50 50 50 51 52 53 55 58 60 59 58 57 58 58 60 61 60 58 57 57 57 56 56 56 56 56 57 56 56
26 26 26 27 27 28 28 29 29 30 30 30 31 32 33 35 37 38 38 38 38 39 40 41 43 45 46 47 49 49 50 51 51 50 49 49 49 49 49 50 51 52 53 54 54 54 54 54 55 55 56 57 59 60 59 58 58 59 59 57 56 56 56 56 56 56 55 55 55 55 55 55 55 56
28 28 29 30 31 31 32 32 33 34 34 35 36 36 37 38 39 40 41 42 43 43 44 45 47 48 50 52 54 55 56 56 55 53 51 52 52 53 53 53 54 55 56 57 57 57 58 58 58 59 59 58 59 59 59 58 58 57 55 54 53 54 54 55 55 56 56 55 54 54 54 54 54 54
30 30 31 32 33 34 35 35 36 37 38 39 40 41 41 42 43 43 44 45 46 47 48 48 50 51 52 54 56 57 59 60 59 59 58 58 58 58 58 58 58 59 59 60 60 60 60 59 59 59 59 59 59 59 58 58 56 55 54 53 53 54 55 55 56 56 56 54 53 52 51 51 51 50
32 32 33 33 34 35 36 37 38 39 40 41 42 43 44 45 46 47 48 48 49 49 49 50 51 53 54 56 57 58 59 60 60 61 61 61 62 62 62 62 62 63 63 63 63 62 61 59 57 56 56 57 57 58 57 56 56 56 55 55 55 55 56 56 55 55 54 52 50 49 48 47 46 46
32 32 33 33 34 35 35 36 38 39 41 42 44 45 46 47 48 49 50 51 52 52 52 53 54 55 56 57 58 58 59 59 60 60 60 60 60 60 60 60 60 60 60 60 60 59 58 56 54 54 55 56 58 59 59 59 58 57 56 55 55 54 54 53 53 53 52 50 48 47 46 45 45 45
26 27 27 28 28 29 30 31 32 34 35 37 39 41 43 46 48 50 51 53 54 56 57 57 58 59 60 61 61 62 62 62 62 61 60 60 59 59 59 59 58 58 57 57 56 56 55 54 54 54 56 58 60 62 61 60 58 56 55 54 53 51 49 48 47 46 46 45 44 44 44 43 43 42
19 20 21 21 22 23 23 24 25 27 28 29 31 33 35 37 39 42 45 48 50 53 55 57 59 60 62 62 63 64 65 66 66 65 64 64 63 63 62 61 59 58 57 56 56 56 55 54 54 55 57 59 60 61 61 59 57 55 53 51 49 46 44 42 40 39 39 39 40 40 39 39 38 38
15 15 16 17 18 19 20 21 22 23 24 25 26 27 29 31 33 35 37 40 42 45 48 51 53 55 57 58 59 60 61 62 63 64 64 64 64 63 63 61 60 58 56 56 56 55 55 55 54 55 57 58 58 57 56 55 53 51 48 45 42 40 37 36 35 35 35 35 35 35 34 34 34 35
15 15 16 17 18 18 19 20 21 22 23 24 25 26 27 28 30 31 32 34 35 37 40 43 44 46 47 49 51 52 53 54 55 56 57 58 59 59 59 58 57 56 54 54 53 52 52 52 52 52 53 53 52 51 50 48 45 42 39 36 34 33 32 31 32 32 32 31 31 31 31 31 31 32
17 17 18 18 19 20 20 21 22 22 23 24 24 25 27 28 30 31 32 33 33 33 34 36 37 38 39 40 41 42 43 44 46 47 48 49 50 51 52 53 53 52 51 50 49 48 47 47 47 46 46 46 46 46 45 42 39 35 32 30 29 29 29 29 29 29 29 28 28 28 29 29 29 29
18 18 19 19 20 21 21 22 23 23 24 25 25 26 27 28 30 31 33 34 34 34 33 32 33 34 34 35 36 37 37 38 39 39 40 41 42 44 45 47 47 47 47 46 45 44 43 42 41 41 41 41 41 39 37 35 32 29 28 27 27 27 28 28 27 26 26 26 26 26 27 27 27 27
19 20 20 20 21 22 22 23 24 25 26 27 27 28 29 30 31 32 34 35 36 35 33 31 31 31 32 33 34 35 36 36 36 36 36 36 37 37 39 40 41 41 41 41 41 41 39 38 37 37 36 36 34 33 31 29 27 26 26 26 26 26 26 25 25 24 24 24 25 25 25 25 26 26
21 22 22 22 23 23 24 24 25 26 27 28 29 30 30 31 32 33 35 36 37 37 35 33 31 31 31 32 33 34 35 36 35 35 34 33 33 33 33 34 35 35 35 36 37 38 37 36 34 33 32 30 28 27 26 24 24 25 25 25 25 25 24 23 22 22 23 23 23 23 23 24 24 24
23 24 24 24 24 25 25 26 26 27 28 29 30 31 32 32 33 34 35 37 38 39 37 35 32 31 31 32 32 33 34 34 34 33 32 31 30 29 29 28 28 28 29 29 30 32 33 33 32 29 26 23 22 22 22 22 23 23 23 23 22 22 21 21 21 21 22 22 22 22 22 22 22 23
25 25 25 25 25 26 26 27 27 28 29 30 31 32 33 33 34 35 35 37 38 39 39 37 34 32 32 32 33 33 33 33 32 31 30 29 28 27 25 23 22 22 22 23 23 25 26 27 27 25 22 20 20 21 22 22 22 21 20 20 20 19 19 19 20 20 21 21 21 20 20 20 21 21
Wind_Direction
229 219 212 213 215 217 218 221 223 225 228 232 231 229 228 230 234 235 234 235 234 234 234 236 240 239 235 236 238 239 238 238 237 237 237 237 238 238 236 235 235 236 239 243 248 252 256 259 261 261 261 261 261 261 261 261 262 263 264 265 266 267 267 268 269 270 271 271 272 272 272 272 271 272
233 229 220 216 217 219 221 222 224 226 228 231 231 229 229 232 235 235 235 236 235 234 235 238 241 240 235 234 236 237 237 236 235 236 236 238 239 238 237 235 236 240 244 250 255 258 260 260 261 261 261 261 262 262 262 262 263 264 264 264 265 266 267 267 268 268 269 269 270 270 270 270 270 270
233 233 230 226 225 224 223 222 224 226 229 232 231 229 230 234 236 235 236 237 235 235 237 238 240 240 236 234 235 235 235 234 234 235 236 238 239 238 238 238 241 246 251 255 259 260 261 260 260 260 261 262 263 263 263 263 264 264 264 265 265 265 265 265 266 267 268 269 269 269 270 270 270 270
234 234 233 232 231 229 227 225 225 225 228 232 231 229 231 236 237 236 238 237 235 235 238 240 240 240 236 234 234 234 234 233 234 235 236 237 239 239 240 242 246 251 255 257 258 258 258 259 259 259 261 261 263 264 265 265 265 265 264 264 264 264 264 265 267 268 269 270 270 270 270 270 270 270
241 235 233 233 233 232 231 229 227 227 228 231 230 230 234 239 238 237 238 239 236 236 240 241 240 239 235 233 233 234 234 233 234 235 236 237 239 240 243 246 249 253 255 256 256 256 256 258 259 260 261 263 264 266 267 268 267 266 265 265 265 265 267 268 269 269 270 270 270 270 270 270 270 271
246 237 233 233 234 233 231 229 228 228 229 230 230 231 237 241 238 234 234 236 236 235 238 239 238 238 235 231 232 234 234 234 236 238 238 239 240 242 245 248 251 253 255 255 254 254 256 258 260 261 262 264 266 269 270 271 270 268 267 267 267 268 268 269 269 269 270 270 270 271 271 271 271 271
247 239 235 235 235 233 230 228 229 231 232 232 234 236 241 242 237 232 231 235 235 233 234 236 236 235 232 227 229 235 236 235 237 239 240 241 242 244 247 250 252 253 254 254 254 254 256 259 260 261 262 265 267 271 272 272 271 270 269 269 268 268 269 269 270 270 271 271 271 271 271 271 272 272
247 240 238 238 237 234 231 229 230 232 232 233 236 237 240 240 236 232 232 235 235 232 232 233 234 235 234 230 233 241 241 238 238 240 242 243 244 247 250 252 253 254 254 254 254 255 258 260 261 261 262 265 268 269 270 269 270 270 270 269 269 269 270 271 272 272 272 271 271 271 271 271 271 271
248 243 242 242 242 239 236 235 235 235 235 235 234 234 236 238 235 232 232 233 233 233 232 232 234 237 239 239 240 243 244 240 240 242 243 244 247 250 253 254 255 255 255 256 256 258 260 261 261 262 263 265 266 266 267 267 269 269 269 270 271 272 273 273 273 272 271 271 271 272 272 272 272 271
249 246 246 246 244 241 240 240 239 238 239 238 237 237 238 237 235 234 233 232 232 233 232 231 231 231 234 240 241 241 241 240 239 241 244 246 249 251 253 255 256 257 258 259 260 262 263 264 263 263 263 263 264 265 266 268 269 271 272 273 274 274 273 272 272 271 272 273 274 275 275 274 273 273
252 249 248 247 245 242 241 243 242 242 242 243 244 244 242 240 237 236 235 233 233 233 231 230 230 230 232 238 239 237 238 239 240 242 245 247 250 252 255 257 258 259 260 262 264 265 265 265 264 263 263 263 264 266 268 270 272 273 274 274 273 272 272 272 272 272 274 275 276 277 276 275 275 274
257 252 247 245 245 244 244 246 245 243 244 246 246 247 247 244 240 236 234 233 233 233 234 234 232 232 233 236 237 235 237 240 242 243 245 249 252 253 256 258 259 260 262 264 266 266 265 264 264 263 264 264 266 268 269 271 272 273 273 273 273 272 273 273 273 273 275 276 277 277 277 276 276 276
258 254 251 249 248 246 247 249 248 244 244 247 248 247 248 247 242 237 235 234 234 236 239 237 233 232 235 238 238 235 235 239 241 244 248 251 253 255 256 258 260 261 264 265 265 264 265 265 265 265 265 265 266 267 269 271 272 273 274 274 274 274 274 273 271 271 273 277 279 279 278 277 277 276
253 252 252 252 251 248 245 247 250 247 245 246 247 247 249 250 247 242 238 238 238 238 239 237 235 235 239 241 236 232 235 241 243 246 249 251 254 256 258 259 261 263 265 265 265 264 265 264 264 264 265 265 266 267 269 271 272 273 273 273 274 274 273 271 269 270 274 279 282 282 281 280 278 277
254 250 249 249 250 251 248 245 246 247 246 245 245 244 246 248 247 245 241 240 241 239 238 237 238 239 242 241 235 233 241 249 247 244 247 250 253 255 257 259 263 265 266 266 265 264 263 263 263 263 265 266 268 269 271 271 272 272 272 272 273 273 273 271 270 271 276 281 284 285 284 281 278 277
256 252 250 250 251 251 250 248 246 247 246 243 240 242 245 246 246 244 241 238 239 239 238 239 239 240 242 241 239 242 251 254 247 243 247 251 253 255 258 261 264 266 266 266 265 264 263 263 263 264 267 270 271 272 272 271 271 270 271 272 273 274 275 275 274 275 277 282 286 287 286 283 279 278
258 257 255 255 254 253 250 247 246 247 246 241 238 240 245 247 247 242 236 233 235 237 239 240 239 238 240 243 247 252 255 251 245 247 253 255 257 259 261 263 264 265 265 265 265 264 263 263 265 266 269 271 272 273 272 272 271 270 271 272 273 274 276 278 280 280 281 283 285 286 285 285 283 281
259 261 260 259 256 254 252 251 249 246 244 243 243 243 243 245 244 239 233 232 235 238 240 241 240 240 242 247 252 253 252 249 251 255 259 260 261 262 263 263 263 264 264 264 264 263 264 265 267 268 269 271 274 275 275 273 272 271 272 273 273 274 277 281 283 283 283 284 285 285 287 287 285 284
262 262 263 264 260 255 253 255 255 250 245 246 249 248 244 241 236 232 231 234 235 236 238 240 242 244 247 249 252 253 253 254 257 261 263 264 262 259 258 260 261 262 263 264 265 267 268 269 270 270 272 274 276 277 276 276 276 275 275 277 277 278 280 282 284 285 285 285 285 286 287 286 285 284
267 264 264 266 265 259 255 256 257 253 249 249 250 246 241 236 231 228 230 234 233 231 234 239 243 246 249 252 253 252 253 255 257 259 261 261 258 255 254 255 257 258 260 264 268 270 271 272 272 274 276 277 276 276 276 277 277 277 277 278 278 279 281 283 285 286 285 285 286 286 286 284 283 282
267 266 265 264 261 257 254 257 259 255 250 246 244 243 240 235 230 227 229 232 231 227 226 230 234 237 239 242 245 248 251 254 256 257 258 256 253 251 250 250 252 256 260 264 267 268 269 271 271 272 272 272 272 273 274 275 276 277 277 277 276 277 279 281 282 283 283 283 283 284 283 283 282 281
264 261 256 252 251 251 250 251 252 252 248 243 242 242 239 231 225 224 226 229 230 230 229 230 234 240 241 240 243 248 252 253 254 260 262 259 256 255 255 256 258 262 266 268 268 269 271 272 271 271 271 272 272 272 273 275 276 277 276 276 277 279 281 283 283 284 284 285 286 285 284 283 282 281
251 249 246 245 247 248 248 246 245 246 247 244 240 237 233 229 226 225 227 228 228 232 235 234 237 241 244 245 248 251 252 253 257 264 265 260 258 260 261 263 266 270 273 272 272 274 275 275 274 274 275 275 275 274 274 275 277 279 279 279 281 284 286 286 286 286 286 288 288 286 284 282 281 280
254 249 248 250 252 249 245 244 243 243 243 240 236 231 229 229 227 223 223 223 223 227 231 234 236 239 243 248 250 250 251 252 252 255 255 254 257 261 262 264 268 272 273 273 274 276 276 276 276 277 278 278 277 277 277 277 278 280 281 281 283 284 284 284 284 285 285 286 285 283 281 280 280 281
272 263 258 262 267 258 247 245 243 239 236 233 232 230 229 231 230 225 223 225 227 232 236 240 244 246 249 252 249 247 250 250 246 246 251 255 260 263 263 263 265 269 271 273 274 275 275 275 276 276 277 277 276 277 278 277 277 277 278 278 279 281 281 283 285 286 285 284 283 282 282 282 282 283
279 275 273 275 274 256 241 243 247 242 236 234 233 232 233 235 236 236 236 238 241 244 246 248 249 250 251 252 248 244 244 245 245 249 254 258 259 260 260 260 261 263 265 268 270 272 274 275 274 274 274 274 274 275 275 274 274 274 274 275 276 279 281 284 286 285 284 283 283 282 282 283 282 282
271 270 269 269 267 256 249 252 255 251 247 245 242 239 238 239 241 244 249 251 251 251 252 254 254 252 251 251 250 249 247 248 250 253 256 257 257 257 258 258 259 261 263 265 266 268 272 275 275 274 273 274 274 273 273 273 274 274 274 275 276 278 281 284 285 284 283 283 282 280 280 281 281 281
273 271 268 264 262 260 258 260 261 260 259 261 260 256 252 249 248 249 251 253 255 256 259 260 258 255 252 252 253 254 254 254 254 256 258 258 257 257 258 259 260 261 261 261 262 264 268 273 277 277 275 274 273 272 272 272 272 273 274 275 276 278 280 282 283 281 280 279 278 278 278 279 279 280
276 274 274 271 268 265 263 261 261 261 262 263 264 264 263 261 259 259 259 261 263 266 266 264 261 258 256 255 256 257 257 257 257 259 262 261 257 256 256 257 258 259 259 260 263 265 267 270 273 274 274 274 274 274 274 273 271 272 273 275 277 278 279 279 278 276 276 277 277 277 277 278 279 279
278 277 276 276 274 273 272 270 268 267 266 265 264 265 265 266 267 267 268 268 268 269 268 265 261 259 257 258 258 258 259 260 262 265 267 264 258 255 255 255 256 257 258 260 264 267 268 269 270 271 272 273 274 275 275 273 271 271 273 275 276 276 275 274 273 274 274 275 276 277 278 279 280 281
277 277 277 276 276 275 275 274 274 273 272 270 268 266 266 266 268 269 270 270 268 268 267 265 262 260 258 258 259 259 260 263 265 267 267 264 260 259 258 258 258 259 260 262 265 268 270 271 271 271 271 272 273 273 272 271 269 270 271 271 271 271 271 272 272 273 273 274 276 278 280 281 283 284
274 274 274 274 274 274 274 274 273 273 273 272 271 270 268 267 267 268 268 269 269 268 267 266 265 263 262 262 262 262 263 265 267 268 267 266 265 265 264 264 264 264 265 266 268 269 270 270 270 269 269 270 271 271 269 268 267 268 268 268 268 270 271 271 272 272 272 274 276 278 281 283 285 287
272 272 271 271 271 272 273 273 273 273 272 272 272 271 270 269 268 267 266 266 267 267 267 267 266 265 265 265 265 265 266 266 268 269 269 269 269 268 267 266 266 266 267 268 269 269 269 269 269 268 267 268 269 269 268 267 266 265 266 268 270 270 271 270 270 270 271 272 275 279 282 285 287 288
272 271 271 270 270 270 270 270 271 271 272 272 272 273 273 272 272 271 269 268 267 266 266 265 265 265 265 265 265 266 266 267 267 268 268 268 267 267 267 266 266 266 267 268 268 267 266 266 267 269 269 268 268 268 267 265 264 264 266 268 269 269 269 268 268 268 270 273 277 281 284 286 287 288
274 275 275 275 274 274 273 273 272 272 272 272 273 273 274 274 274 274 273 273 272 270 268 267 265 264 264 265 265 265 265 265 266 266 266 266 266 266 266 266 266 266 266 266 266 265 265 266 268 271 271 270 270 269 267 264 263 264 265 266 265 265 264 265 266 268 271 275 279 282 284 285 287 289
283 284 286 286 287 287 286 286 285 284 283 282 281 280 279 278 277 277 276 275 275 274 273 271 270 269 267 267 266 266 266 266 267 267 267 268 268 267 267 268 268 268 268 267 266 266 266 267 269 271 271 270 270 268 265 262 260 261 261 261 260 260 262 265 269 272 274 277 280 283 284 287 289 291
297 298 299 300 301 301 302 301 301 300 299 298 297 295 293 291 289 286 284 281 279 278 276 275 274 273 272 271 270 270 269 269 269 269 269 269 269 270 270 270 270 270 270 269 268 268 268 268 268 269 269 269 268 266 263 261 260 259 259 259 260 262 266 270 273 276 279 281 283 284 286 288 290 291
308 308 308 308 308 308 308 309 309 309 310 310 310 309 308 306 304 301 297 293 289 285 282 280 278 277 276 275 274 273 272 272 271 270 270 269 270 270 270 271 271 271 270 270 269 269 268 268 268 268 269 269 268 266 264 262 262 261 262 262 264 268 271 274 277 280 282 283 285 286 287 289 290 292
311 310 310 310 310 310 311 312 313 314 315 317 318 319 319 319 318 316 313 309 303 297 292 289 286 285 283 282 281 279 278 276 275 273 272 271 270 269 269 269 269 269 269 269 268 268 268 267 267 267 268 268 267 265 264 263 264 265 266 267 270 273 276 279 280 282 283 284 285 287 288 289 291 292
310 310 310 310 311 313 314 315 316 317 318 320 321 323 325 327 328 328 328 326 322 315 307 300 297 295 294 292 291 288 286 284 281 279 277 275 273 271 269 267 266 266 266 267 268 267 267 267 267 267 267 266 265 264 264 264 265 267 269 271 273 275 278 279 280 281 282 283 285 286 287 289 290 292
312 312 313 314 315 316 318 319 320 321 322 323 325 327 329 331 333 335 336 337 335 330 322 313 307 304 302 301 300 297 295 292 289 286 283 280 277 274 271 269 266 265 264 265 266 267 267 268 268 267 266 265 263 262 262 262 264 266 268 271 272 274 276 277 277 278 280 281 283 285 287 289 291 294
315 315 316 317 318 320 321 323 324 325 326 327 329 330 332 334 336 338 340 341 341 339 332 323 314 310 308 307 306 304 301 299 296 293 290 286 282 278 275 271 268 266 264 264 264 264 264 264 264 263 262 260 258 256 257 259 262 265 267 270 271 273 274 275 275 277 278 281 284 287 290 292 294 296
317 317 318 319 320 322 323 325 327 328 329 330 331 332 334 335 336 338 340 341 343 342 338 331 321 315 312 311 310 308 307 304 302 299 295 292 288 284 280 275 271 269 267 265 264 264 263 261 259 257 255 252 250 249 252 257 261 264 266 268 270 271 273 274 275 278 280 283 286 289 292 294 297 300
317 318 318 319 320 322 324 326 328 330 331 332 332 333 334 335 337 338 339 341 342 343 341 336 328 321 317 315 315 314 311 309 306 303 300 297 292 289 285 280 275 273 271 271 269 268 266 262 258 254 252 251 252 256 260 263 264 265 266 268 270 272 274 276 278 281 284 286 288 291 294 297 300 303
318 318 318 318 319 321 323 325 327 329 330 331 332 333 334 335 336 337 338 340 341 342 342 339 333 326 321 320 319 318 316 313 310 307 305 302 298 294 289 283 278 276 276 275 273 270 266 262 259 256 255 258 262 265 267 268 268 269 271 272 274 276 278 280 282 283 285 287 289 292 295 298 301 304